Location: Ladd Observatory
(41.8387°N, 71.3996°W)
Time: 10:00:24
(UTC-05:00)

Hubble Space Telescope - Visible Passes

Search period start: 27 November 2020 00:00
Search period end: 07 December 2020 00:00
Orbit: 536 x 540 km, 28.5° (Epoch: 26 November)

Date Brightness Start Highest point End Pass type
(mag) Time Alt. Az. Time Alt. Az. Time Alt. Az.
04 Dec 3.4 17:39:13 10° S 17:40:04 11° S 17:40:57 10° SSE visible
05 Dec 3.3 17:27:46 10° SSW 17:29:09 11° S 17:30:32 10° SSE visible
06 Dec 3.3 17:16:34 10° SSW 17:18:13 12° S 17:19:51 10° SSE visible
06 Dec 3.6 18:57:19 10° SSW 18:57:42 11° SSW 18:57:42 11° SSW visible
